User: anonymous   Login
Location: Unspecified
(0.0000°N, 0.0000°E)
Time: 11:49:41
(UTC+01:00)
Language:

H-2A R/B - Orbit

View from above orbital plane
View from above orbital plane
View from above satellite
View from above satellite

Ground track
Ground track

The orbit data is extracted from the following two-line orbital elements,

1 26899U 01038B   16039.57073097 +.00004950 +00000-0 +83962-3 0  9992
2 26899 028.0720 266.6098 7143979 219.8443 056.0725 02.46583554124243
Epoch (UTC): 08 February 2016 13:41:51
Eccentricity: 0.7143979
inclination: 28.0720°
perigee height: 231 km
apogee height: 33298 km
right ascension of ascending node: 266.6098°
argument of perigee: 219.8443°
revolutions per day: 2.46583554
mean anomaly at epoch: 56.0725°
orbit number at epoch: 12424

The dashed part of the orbit path shows where the satellite is in the earth's shadow,  

DLR